Theta_e
342 338 337 339 335 333 334 332 333 333 333 333 334 335 335 336 336 336 335 334 334 334 334 334 335 336 336 335 336 340 342 343 343 342 340 337 337 338 338 337 339 334 332
342 338 341 343 340 335 336 336 336 335 333 333 334 334 335 335 335 336 336 336 336 337 337 336 335 335 335 334 335 336 336 337 337 337 336 336 338 341 341 344 337 334 329
339 341 342 343 343 341 340 342 342 340 338 333 331 332 334 334 334 335 335 336 336 337 339 339 339 339 338 335 336 336 338 339 335 336 336 336 337 340 341 342 338 334 328
338 336 332 331 337 342 342 342 342 342 340 331 331 333 335 335 335 336 338 337 337 336 338 340 338 335 333 335 337 340 342 338 337 338 336 336 338 341 337 337 339 335 334
334 333 334 334 333 337 342 342 342 342 338 333 337 337 337 335 332 337 337 334 331 330 332 333 328 330 333 333 337 343 343 342 339 341 342 339 338 341 336 341 340 337 339
335 336 335 334 334 334 335 338 340 341 335 337 336 335 336 336 336 334 334 334 335 335 335 333 331 331 331 335 338 343 341 340 337 337 341 339 337 340 336 337 337 335 334
337 333 334 335 334 333 333 335 337 336 337 336 334 337 335 335 331 336 335 336 338 340 340 338 338 338 337 333 339 343 343 334 342 341 342 337 336 340 339 339 333 331 330
338 333 332 335 333 335 337 342 338 339 337 337 336 339 334 333 333 335 335 337 338 339 341 342 342 341 339 338 337 341 341 343 343 340 341 340 336 338 339 339 336 338 336
340 332 333 335 334 339 336 338 338 338 337 336 335 338 334 339 333 332 333 334 336 338 340 340 340 340 340 341 340 339 341 341 341 341 338 339 339 336 336 335 335 339 335
342 337 331 333 331 336 337 337 334 334 334 338 333 328 331 333 329 328 329 334 339 340 340 340 340 341 344 343 342 342 337 336 338 342 342 342 341 333 333 333 334 336 332
339 333 330 330 332 333 335 334 333 335 337 338 329 342 337 330 329 331 337 340 342 345 344 343 344 345 346 343 339 339 340 333 340 340 339 343 339 334 335 332 331 331 331
341 333 331 332 330 330 333 332 331 329 334 331 330 335 333 338 340 339 339 342 344 349 349 347 348 349 346 338 337 338 338 339 336 334 341 342 341 333 333 333 333 332 332
346 344 341 334 330 330 331 331 331 336 340 328 330 340 347 347 347 346 342 344 348 346 346 347 349 347 343 338 336 335 336 337 337 337 341 344 343 335 332 330 331 331 331
346 346 344 342 338 330 340 334 330 329 328 328 332 346 347 348 346 348 349 347 348 346 348 348 346 347 345 341 340 339 339 338 338 339 343 342 341 337 336 331 331 330 331
345 346 346 345 339 337 346 337 340 329 328 332 347 348 349 348 348 347 349 347 348 348 348 348 347 346 344 338 342 341 342 339 337 338 341 342 341 340 338 338 338 335 333
342 344 346 347 342 346 346 344 344 345 345 332 346 348 350 350 349 348 348 348 349 348 349 347 345 344 346 344 343 343 340 339 336 343 340 341 342 342 341 340 339 338 338
342 342 346 347 344 346 347 345 345 345 346 344 340 340 343 348 349 348 347 348 347 349 349 348 348 347 346 345 345 344 343 342 345 345 344 343 343 345 345 343 343 341 340
342 342 343 347 346 347 349 344 347 346 348 345 343 343 339 346 347 344 345 345 349 350 349 349 348 347 345 345 344 343 342 345 345 345 343 337 345 345 342 340 345 345 344
343 342 342 344 345 345 348 346 347 348 346 344 343 344 343 339 346 345 343 347 351 350 348 348 348 347 344 343 344 344 343 339 341 343 345 341 343 347 346 346 348 344 342
342 342 342 342 345 344 345 347 344 347 347 345 343 342 343 342 342 340 343 348 348 348 347 348 347 347 345 341 339 338 339 340 341 341 344 344 343 342 344 344 344 343 340
341 342 341 342 342 342 342 338 344 346 346 345 343 342 342 343 345 336 336 342 347 351 350 346 347 346 346 343 343 342 341 340 343 343 343 345 346 339 337 340 341 344 343
340 340 340 340 339 339 339 338 337 338 342 345 343 343 344 343 345 346 345 341 350 348 349 348 345 347 345 342 342 342 339 339 338 343 344 344 342 342 341 340 337 343 343
340 339 339 339 339 338 339 338 337 331 331 341 342 343 347 345 345 346 349 345 346 346 343 341 345 346 339 340 343 339 337 337 340 339 339 342 342 342 341 338 337 340 342
344 340 340 341 341 341 339 338 336 332 327 336 340 346 346 346 345 348 350 348 346 347 344 339 341 342 342 343 342 338 337 336 338 339 341 340 340 338 338 338 337 336 340
346 342 341 343 345 345 340 336 336 336 329 338 344 345 344 345 345 351 347 348 344 342 341 344 340 345 343 343 338 338 335 335 338 338 340 339 338 337 337 336 335 335 335
346 345 343 343 347 347 341 337 335 335 331 342 344 345 346 347 347 349 347 346 342 342 344 343 343 342 342 341 338 338 339 339 340 335 338 340 339 336 335 335 334 334 334
Wind_Speed
23 23 21 20 21 21 20 19 20 19 19 18 17 18 17 17 16 15 14 14 13 12 11 9 8 7 7 7 7 8 7 6 6 7 10 10 11 12 13 12 11 12 15
26 24 20 19 20 20 19 19 18 18 17 16 15 15 15 14 13 13 13 12 11 10 9 10 9 9 8 7 7 6 6 4 5 7 9 13 16 16 15 14 13 13 15
25 24 21 20 20 20 19 17 17 16 14 14 14 14 13 12 12 12 11 10 10 10 10 10 9 9 9 10 10 9 9 6 8 10 11 11 12 15 15 14 11 13 16
25 23 21 21 20 20 19 17 16 15 13 13 13 14 13 13 14 14 14 13 11 10 12 12 10 10 11 10 9 10 10 11 10 8 10 11 15 16 13 13 14 16 16
23 22 21 20 20 20 19 18 16 15 13 14 14 14 15 14 14 15 15 15 14 15 15 13 13 13 13 10 10 10 8 8 9 8 7 6 9 14 14 12 14 16 16
21 20 20 20 20 19 19 18 17 16 14 15 15 16 16 16 16 16 16 14 15 16 17 16 16 15 14 12 10 7 10 10 9 6 9 6 10 12 14 12 14 15 15
21 18 19 19 19 19 19 18 17 16 16 16 16 17 16 16 16 16 15 15 15 15 15 15 16 15 14 12 8 7 7 11 5 8 11 8 9 11 12 13 13 14 16
18 17 17 18 19 19 19 18 17 17 17 17 17 16 16 17 16 15 14 14 14 14 14 14 15 14 13 11 7 5 3 4 10 10 13 9 7 10 12 12 14 14 13
17 19 18 20 20 19 19 18 18 17 17 16 16 16 16 16 15 14 13 13 13 14 14 14 14 11 9 8 6 3 0 1 4 10 11 9 6 9 10 12 13 14 14
15 18 19 19 20 20 20 18 18 17 17 17 15 16 16 15 15 15 15 15 15 15 15 14 12 7 7 7 5 4 7 9 5 9 9 9 10 12 13 13 14 15 15
16 19 18 18 18 18 18 18 18 18 18 16 15 17 16 16 17 17 18 16 16 15 14 11 9 8 6 4 2 3 5 3 10 9 8 8 11 14 13 14 14 15 16
19 18 18 18 17 18 19 17 16 18 17 17 17 18 20 20 18 17 15 14 14 13 12 8 6 6 7 8 3 3 4 9 14 12 10 12 12 13 16 15 15 14 15
17 18 15 15 17 17 16 16 16 18 18 18 21 22 21 20 16 14 13 13 13 12 16 9 4 8 7 13 12 13 5 13 14 13 13 14 14 11 12 15 16 15 15
20 16 18 15 17 22 15 14 16 17 19 21 23 22 19 16 15 11 11 11 10 10 9 5 5 7 5 4 5 6 11 11 11 16 13 14 15 14 12 13 14 15 14
19 18 19 17 18 20 12 16 16 18 17 21 24 20 18 16 13 11 8 11 9 7 5 6 2 3 3 3 6 7 7 11 12 10 9 13 13 14 16 13 13 14 14
19 17 21 19 17 18 14 15 15 16 16 19 22 17 19 18 15 13 9 10 8 8 7 4 1 7 6 8 7 8 14 11 10 4 8 7 12 16 17 16 16 16 15
23 18 23 22 18 17 15 16 15 13 15 16 16 16 17 19 18 20 19 16 10 11 9 7 7 4 5 8 11 4 7 5 5 5 8 8 11 11 13 16 14 15 16
26 24 21 25 22 19 22 21 16 16 17 17 14 13 15 24 22 22 20 18 18 14 13 12 10 10 7 7 7 7 8 5 7 7 7 11 12 12 12 11 16 16 17
30 30 28 28 26 24 27 24 22 18 18 18 16 16 14 22 23 20 19 20 14 13 13 12 12 14 10 8 6 4 4 2 1 3 11 12 14 16 10 8 10 13 14
30 30 30 28 29 27 26 26 29 24 25 21 17 20 17 16 17 22 18 20 17 15 15 16 14 13 10 7 6 5 5 3 6 9 12 12 11 10 11 12 14 15 14
30 32 31 32 33 32 31 25 31 33 28 26 24 21 19 15 16 15 20 21 17 18 16 14 15 12 9 9 9 10 8 7 9 9 9 10 15 11 10 6 12 16 14
33 34 33 34 35 34 32 25 22 31 37 34 28 25 24 24 19 18 19 22 23 21 19 18 17 18 17 14 13 11 10 11 14 12 13 13 13 13 8 8 9 18 19
35 37 36 35 33 32 31 25 21 19 29 36 34 30 24 27 24 26 25 22 23 27 23 20 19 21 18 19 15 11 7 9 15 16 13 10 10 9 10 8 5 10 15
37 37 37 32 31 30 29 28 26 24 29 32 35 30 27 27 29 32 28 25 23 24 21 16 20 19 16 19 15 14 13 11 11 11 14 14 13 10 7 3 3 4 8
37 39 38 34 30 31 29 30 28 26 27 28 28 28 29 30 32 36 31 26 25 23 22 24 21 20 20 18 17 14 14 14 17 13 18 16 14 12 7 3 3 3 4
39 36 39 38 33 33 32 28 32 28 30 35 31 27 30 28 32 36 32 32 29 22 25 22 20 21 21 19 17 17 16 16 16 17 18 22 19 14 8 7 3 4 6
Wind_Direction
171 163 158 151 146 141 135 132 129 129 132 134 134 132 132 137 139 139 142 150 153 158 161 157 158 154 131 150 167 197 189 207 223 196 180 185 178 162 154 153 158 151 147
160 162 162 157 156 149 145 139 133 133 135 141 148 145 141 137 140 142 142 144 148 158 158 152 154 155 145 135 126 149 141 173 200 200 178 188 180 178 164 158 151 159 155
163 161 161 158 160 160 158 145 145 138 137 140 142 145 141 139 134 132 127 127 138 146 152 144 141 132 125 119 124 132 125 130 152 159 166 165 170 176 166 154 152 163 159
166 163 165 164 162 161 159 155 151 146 141 140 139 139 136 133 128 123 118 117 119 131 131 129 130 125 116 120 121 116 113 118 118 129 152 159 165 165 165 159 165 164 164
165 162 162 162 162 159 160 161 156 153 146 143 141 138 135 133 130 127 122 114 110 114 122 126 117 114 113 124 125 125 118 127 143 162 163 139 162 170 183 164 170 173 168
161 164 164 164 159 159 159 162 160 156 151 147 143 139 135 136 131 127 124 123 115 111 112 114 112 113 116 122 124 133 113 98 128 152 140 143 165 176 181 180 180 172 172
162 165 168 165 160 160 158 159 158 153 152 151 144 141 139 139 135 134 132 126 119 113 111 110 109 106 107 114 136 138 134 132 140 161 160 142 166 166 178 182 173 176 179
156 163 168 168 163 160 159 157 154 154 154 153 146 144 143 140 138 137 137 131 121 114 110 107 104 105 103 125 150 180 190 142 139 144 158 169 183 169 183 178 182 187 185
165 163 169 174 167 162 162 159 158 157 158 156 152 154 147 144 141 141 139 131 122 115 111 105 102 104 112 112 135 181 246 271 186 160 151 164 181 194 192 189 190 194 195
172 176 170 178 171 166 163 160 160 160 161 157 155 151 148 146 143 141 134 124 118 115 113 113 115 127 101 87 67 84 94 95 193 177 183 197 196 203 206 202 196 202 205
169 174 172 180 174 167 164 163 165 166 162 161 155 151 147 141 138 133 129 123 118 109 109 117 126 96 75 70 15 340 158 147 134 160 175 195 214 209 209 212 209 210 210
156 163 174 179 178 173 168 168 167 166 166 161 156 156 144 137 132 128 127 124 120 110 109 109 95 79 73 46 335 336 285 215 211 216 221 238 226 206 213 217 219 220 218
164 162 160 173 174 174 166 166 170 169 167 162 157 153 146 142 142 133 133 137 122 110 101 126 114 107 104 53 76 69 55 202 233 187 203 210 223 202 206 217 222 222 221
180 184 165 164 166 158 153 167 166 173 172 168 166 164 161 152 152 147 140 136 137 117 106 98 120 120 94 45 97 119 83 70 116 176 188 204 201 212 214 218 223 224 224
196 199 185 176 165 165 157 163 162 164 169 169 171 172 171 167 165 169 157 165 152 149 130 140 162 170 145 119 125 86 105 103 118 153 186 206 211 204 213 207 224 222 222
199 207 199 190 183 174 172 176 171 169 163 175 185 181 177 170 178 188 197 186 168 160 151 190 53 166 160 141 132 97 123 110 123 143 196 199 212 216 216 222 221 227 222
205 203 200 198 193 190 191 193 200 209 201 185 181 194 206 188 188 196 207 205 205 194 197 223 208 177 163 167 150 142 169 150 116 193 173 198 189 198 211 218 226 227 228
204 202 204 200 200 201 190 197 202 205 213 206 198 206 207 206 204 201 203 204 191 206 202 223 216 187 167 162 164 102 148 133 153 165 174 187 198 200 208 216 227 222 228
205 202 207 208 208 201 195 204 198 203 208 211 222 216 213 210 213 213 199 193 204 206 210 225 218 233 202 181 179 167 148 136 249 221 202 191 207 205 217 243 239 219 237
208 211 211 214 210 210 211 212 207 206 204 211 225 230 226 224 232 229 218 209 210 211 220 229 230 211 192 191 207 222 245 227 210 210 201 192 190 214 224 236 237 231 254
209 211 214 214 217 223 226 235 226 217 212 209 215 224 229 225 233 226 224 212 211 211 231 232 222 229 229 210 221 224 220 199 193 208 215 206 194 219 230 251 239 230 242
216 218 215 220 222 228 230 234 235 230 227 219 217 224 232 232 235 233 224 220 223 226 224 230 233 232 223 229 227 234 240 229 211 196 193 195 210 210 223 261 240 217 230
218 218 221 226 229 235 235 231 226 229 221 217 218 221 231 229 234 236 222 219 226 227 234 239 233 229 249 231 231 233 221 220 199 207 208 200 204 226 248 245 247 220 223
226 224 225 229 236 240 240 231 228 223 214 214 213 219 225 231 236 229 227 228 232 234 235 242 237 235 229 236 230 241 244 241 195 189 195 199 198 212 209 204 138 156 210
227 227 225 228 237 239 238 236 231 228 219 205 211 222 232 244 245 223 224 231 238 248 246 242 238 231 232 234 234 238 224 227 228 214 188 192 190 186 205 196 129 118 129
224 235 228 230 237 237 234 235 231 228 220 212 218 229 234 236 227 218 230 222 240 235 243 241 239 238 242 243 238 233 235 229 235 214 213 201 204 188 203 197 201 137 126